Wetterdaten: Freitag, 03.07.2015
Datum Zeit Temp. A. Feuchte A. Luftdruck Regen Wind Richtung Richtung Sonnenschein ET UV Solar Taupunkt Windchill Windben Empfang
03.07.2015 00:00 19,8 C 68 % 1022,0 hPa 0,0 l/m 0,0 km/h (0 Bft) NO 51 0 min 0,000 mm 0,0 UV-I 0 W/m 13,7 C 19,8 C 0,0 km/h (0 Bft) 0,00 %
03.07.2015 00:05 19,7 C 68 % 1022,0 hPa 0,0 l/m 0,0 km/h (0 Bft) O-NO 61 0 min 0,000 mm 0,0 UV-I 0 W/m 13,6 C 19,7 C 0,0 km/h (0 Bft) 0,00 %
03.07.2015 00:10 19,6 C 68 % 1022,4 hPa 0,0 l/m 0,0 km/h (0 Bft) O 101 0 min 0,000 mm 0,0 UV-I 0 W/m 13,5 C 19,6 C 0,0 km/h (0 Bft) 0,00 %
03.07.2015 00:15 19,6 C 68 % 1022,1 hPa 0,0 l/m 0,0 km/h (0 Bft) NO 55 0 min 0,000 mm 0,0 UV-I 0 W/m 13,5 C 19,6 C 0,0 km/h (0 Bft) 0,00 %
03.07.2015 00:20 19,5 C 69 % 1022,2 hPa 0,0 l/m 0,0 km/h (0 Bft) O-NO 73 0 min 0,000 mm 0,0 UV-I 0 W/m 13,7 C 19,5 C 0,0 km/h (0 Bft) 0,00 %
03.07.2015 00:25 19,5 C 69 % 1022,1 hPa 0,0 l/m 0,0 km/h (0 Bft) O-NO 66 0 min 0,000 mm 0,0 UV-I 0 W/m 13,7 C 19,5 C 0,0 km/h (0 Bft) 0,00 %
03.07.2015 00:30 19,4 C 69 % 1022,1 hPa 0,0 l/m 0,0 km/h (0 Bft) O-NO 73 0 min 0,000 mm 0,0 UV-I 0 W/m 13,6 C 19,4 C 0,0 km/h (0 Bft) 0,00 %
03.07.2015 00:35 19,3 C 69 % 1022,2 hPa 0,0 l/m 0,0 km/h (0 Bft) O-NO 73 0 min 0,000 mm 0,0 UV-I 0 W/m 13,5 C 19,3 C 0,0 km/h (0 Bft) 0,00 %
03.07.2015 00:40 19,3 C 69 % 1022,1 hPa 0,0 l/m 0,0 km/h (0 Bft) O 83 0 min 0,000 mm 0,0 UV-I 0 W/m 13,5 C 19,3 C 0,0 km/h (0 Bft) 0,00 %
03.07.2015 00:45 19,2 C 70 % 1022,1 hPa 0,0 l/m 0,0 km/h (0 Bft) NO 49 0 min 0,000 mm 0,0 UV-I 0 W/m 13,6 C 19,2 C 0,0 km/h (0 Bft) 0,00 %
03.07.2015 00:50 19,2 C 70 % 1022,1 hPa 0,0 l/m 0,0 km/h (0 Bft) SO 125 0 min 0,000 mm 0,0 UV-I 0 W/m 13,6 C 19,2 C 0,0 km/h (0 Bft) 0,00 %
03.07.2015 00:55 19,1 C 70 % 1022,3 hPa 0,0 l/m 0,0 km/h (0 Bft) O-NO 62 0 min 0,000 mm 0,0 UV-I 0 W/m 13,5 C 19,1 C 0,0 km/h (0 Bft) 0,00 %
03.07.2015 01:00 19,0 C 69 % 1022,2 hPa 0,0 l/m 0,0 km/h (0 Bft) SO 127 0 min 0,000 mm 0,0 UV-I 0 W/m 13,2 C 19,0 C 0,0 km/h (0 Bft) 0,00 %
03.07.2015 01:05 18,9 C 69 % 1022,2 hPa 0,0 l/m 0,0 km/h (0 Bft) N-NO 29 0 min 0,000 mm 0,0 UV-I 0 W/m 13,1 C 18,9 C 0,0 km/h (0 Bft) 0,00 %
03.07.2015 01:10 18,9 C 68 % 1022,3 hPa 0,0 l/m 0,0 km/h (0 Bft) O-NO 60 0 min 0,000 mm 0,0 UV-I 0 W/m 12,9 C 18,9 C 0,0 km/h (0 Bft) 0,00 %
03.07.2015 01:15 18,8 C 68 % 1022,2 hPa 0,0 l/m 0,0 km/h (0 Bft) O 95 0 min 0,000 mm 0,0 UV-I 0 W/m 12,8 C 18,8 C 0,0 km/h (0 Bft) 0,00 %
03.07.2015 01:20 18,8 C 66 % 1022,2 hPa 0,0 l/m 0,0 km/h (0 Bft) O-SO 117 0 min 0,000 mm 0,0 UV-I 0 W/m 12,3 C 18,8 C 0,0 km/h (0 Bft) 0,00 %
03.07.2015 01:25 18,8 C 63 % 1022,2 hPa 0,0 l/m 2,9 km/h (1 Bft) O 86 0 min 0,000 mm 0,0 UV-I 0 W/m 11,6 C 18,8 C 4,0 km/h (1 Bft) 0,00 %
03.07.2015 01:30 19,0 C 63 % 1022,2 hPa 0,0 l/m 3,2 km/h (1 Bft) S 173 0 min 0,000 mm 0,0 UV-I 0 W/m 11,8 C 19,0 C 7,9 km/h (2 Bft) 0,00 %
03.07.2015 01:35 19,1 C 62 % 1022,2 hPa 0,0 l/m 2,9 km/h (1 Bft) O-SO 107 0 min 0,000 mm 0,0 UV-I 0 W/m 11,6 C 19,1 C 4,0 km/h (1 Bft) 0,00 %
03.07.2015 01:40 19,1 C 62 % 1022,2 hPa 0,0 l/m 0,4 km/h (0 Bft) O-SO 102 0 min 0,000 mm 0,0 UV-I 0 W/m 11,6 C 19,1 C 4,0 km/h (1 Bft) 0,00 %
03.07.2015 01:45 19,1 C 62 % 1022,3 hPa 0,0 l/m 0,0 km/h (0 Bft) O 89 0 min 0,000 mm 0,0 UV-I 0 W/m 11,6 C 19,1 C 0,0 km/h (0 Bft) 0,00 %
03.07.2015 01:50 19,0 C 63 % 1022,4 hPa 0,0 l/m 0,0 km/h (0 Bft) NO 54 0 min 0,000 mm 0,0 UV-I 0 W/m 11,8 C 19,0 C 0,0 km/h (0 Bft) 0,00 %
03.07.2015 01:55 18,9 C 64 % 1022,4 hPa 0,0 l/m 0,7 km/h (0 Bft) O 95 0 min 0,000 mm 0,0 UV-I 0 W/m 11,9 C 18,9 C 4,0 km/h (1 Bft) 0,00 %
03.07.2015 02:00 18,8 C 63 % 1022,3 hPa 0,0 l/m 1,4 km/h (1 Bft) O-SO 114 0 min 0,000 mm 0,0 UV-I 0 W/m 11,6 C 18,8 C 4,0 km/h (1 Bft) 0,00 %
03.07.2015 02:05 18,6 C 64 % 1022,3 hPa 0,0 l/m 0,0 km/h (0 Bft) O-SO 117 0 min 0,000 mm 0,0 UV-I 0 W/m 11,7 C 18,6 C 0,0 km/h (0 Bft) 0,00 %
03.07.2015 02:10 18,5 C 64 % 1022,4 hPa 0,0 l/m 0,0 km/h (0 Bft) O 86 0 min 0,000 mm 0,0 UV-I 0 W/m 11,6 C 18,5 C 0,0 km/h (0 Bft) 0,00 %
03.07.2015 02:15 18,3 C 64 % 1022,5 hPa 0,0 l/m 0,4 km/h (0 Bft) O 89 0 min 0,000 mm 0,0 UV-I 0 W/m 11,4 C 18,3 C 4,0 km/h (1 Bft) 0,00 %
03.07.2015 02:20 18,1 C 65 % 1022,5 hPa 0,0 l/m 0,0 km/h (0 Bft) NO 56 0 min 0,000 mm 0,0 UV-I 0 W/m 11,4 C 18,1 C 0,0 km/h (0 Bft) 0,00 %
03.07.2015 02:25 18,0 C 66 % 1022,5 hPa 0,0 l/m 0,0 km/h (0 Bft) O-NO 67 0 min 0,000 mm 0,0 UV-I 0 W/m 11,6 C 18,0 C 0,0 km/h (0 Bft) 0,00 %
03.07.2015 02:30 17,9 C 66 % 1022,6 hPa 0,0 l/m 0,0 km/h (0 Bft) NO 50 0 min 0,000 mm 0,0 UV-I 0 W/m 11,5 C 17,9 C 0,0 km/h (0 Bft) 0,00 %
03.07.2015 02:35 17,8 C 66 % 1022,8 hPa 0,0 l/m 0,0 km/h (0 Bft) O-NO 68 0 min 0,000 mm 0,0 UV-I 0 W/m 11,4 C 17,8 C 0,0 km/h (0 Bft) 0,00 %
03.07.2015 02:40 17,7 C 67 % 1022,8 hPa 0,0 l/m 0,0 km/h (0 Bft) O-NO 64 0 min 0,000 mm 0,0 UV-I 0 W/m 11,5 C 17,7 C 0,0 km/h (0 Bft) 0,00 %
03.07.2015 02:45 17,5 C 68 % 1022,9 hPa 0,0 l/m 0,0 km/h (0 Bft) O 91 0 min 0,000 mm 0,0 UV-I 0 W/m 11,5 C 17,5 C 0,0 km/h (0 Bft) 0,00 %
03.07.2015 02:50 17,4 C 69 % 1022,9 hPa 0,0 l/m 0,0 km/h (0 Bft) O-NO 73 0 min 0,000 mm 0,0 UV-I 0 W/m 11,7 C 17,4 C 0,0 km/h (0 Bft) 0,00 %
03.07.2015 02:55 17,4 C 69 % 1023,0 hPa 0,0 l/m 0,0 km/h (0 Bft) O-NO 64 0 min 0,000 mm 0,0 UV-I 0 W/m 11,7 C 17,4 C 0,0 km/h (0 Bft) 0,00 %
03.07.2015 03:00 17,3 C 69 % 1022,9 hPa 0,0 l/m 0,0 km/h (0 Bft) O 79 0 min 0,000 mm 0,0 UV-I 0 W/m 11,6 C 17,3 C 0,0 km/h (0 Bft) 0,00 %
03.07.2015 03:05 17,3 C 72 % 1022,8 hPa 0,0 l/m 0,0 km/h (0 Bft) O-SO 104 0 min 0,000 mm 0,0 UV-I 0 W/m 12,2 C 17,3 C 0,0 km/h (0 Bft) 0,00 %
03.07.2015 03:10 17,2 C 71 % 1022,8 hPa 0,0 l/m 0,0 km/h (0 Bft) NO 55 0 min 0,000 mm 0,0 UV-I 0 W/m 11,9 C 17,2 C 0,0 km/h (0 Bft) 0,00 %
03.07.2015 03:15 17,1 C 70 % 1022,9 hPa 0,0 l/m 0,0 km/h (0 Bft) NO 53 0 min 0,000 mm 0,0 UV-I 0 W/m 11,6 C 17,1 C 0,0 km/h (0 Bft) 0,00 %
03.07.2015 03:20 17,0 C 70 % 1023,1 hPa 0,0 l/m 0,0 km/h (0 Bft) O-NO 76 0 min 0,000 mm 0,0 UV-I 0 W/m 11,5 C 17,0 C 0,0 km/h (0 Bft) 0,00 %
03.07.2015 03:25 17,0 C 71 % 1023,0 hPa 0,0 l/m 0,0 km/h (0 Bft) O-NO 66 0 min 0,000 mm 0,0 UV-I 0 W/m 11,7 C 17,0 C 0,0 km/h (0 Bft) 0,00 %
03.07.2015 03:30 16,9 C 71 % 1023,0 hPa 0,0 l/m 0,0 km/h (0 Bft) O-NO 66 0 min 0,000 mm 0,0 UV-I 0 W/m 11,6 C 16,9 C 0,0 km/h (0 Bft) 0,00 %
03.07.2015 03:35 16,7 C 73 % 1023,1 hPa 0,0 l/m 0,0 km/h (0 Bft) O-NO 66 0 min 0,000 mm 0,0 UV-I 0 W/m 11,8 C 16,7 C 0,0 km/h (0 Bft) 0,00 %
03.07.2015 03:40 16,6 C 73 % 1023,1 hPa 0,0 l/m 0,0 km/h (0 Bft) O-NO 66 0 min 0,000 mm 0,0 UV-I 0 W/m 11,7 C 16,6 C 0,0 km/h (0 Bft) 0,00 %
03.07.2015 03:45 16,4 C 73 % 1023,1 hPa 0,0 l/m 0,0 km/h (0 Bft) O-NO 66 0 min 0,000 mm 0,0 UV-I 0 W/m 11,5 C 16,4 C 0,0 km/h (0 Bft) 0,00 %
03.07.2015 03:50 16,2 C 75 % 1023,0 hPa 0,0 l/m 0,0 km/h (0 Bft) O-NO 66 0 min 0,000 mm 0,0 UV-I 0 W/m 11,8 C 16,2 C 0,0 km/h (0 Bft) 0,00 %
03.07.2015 03:55 16,0 C 76 % 1023,1 hPa 0,0 l/m 0,0 km/h (0 Bft) O-NO 66 0 min 0,000 mm 0,0 UV-I 0 W/m 11,8 C 16,0 C 0,0 km/h (0 Bft) 0,00 %
03.07.2015 04:00 15,9 C 76 % 1023,0 hPa 0,0 l/m 0,0 km/h (0 Bft) O-NO 66 0 min 0,000 mm 0,0 UV-I 0 W/m 11,7 C 15,9 C 0,0 km/h (0 Bft) 0,00 %
03.07.2015 04:05 15,8 C 76 % 1023,2 hPa 0,0 l/m 0,0 km/h (0 Bft) O-NO 66 0 min 0,000 mm 0,0 UV-I 0 W/m 11,6 C 15,8 C 0,0 km/h (0 Bft) 0,00 %
03.07.2015 04:10 15,7 C 77 % 1023,2 hPa 0,0 l/m 0,0 km/h (0 Bft) O-NO 66 0 min 0,000 mm 0,0 UV-I 0 W/m 11,7 C 15,7 C 0,0 km/h (0 Bft) 0,00 %
03.07.2015 04:15 15,6 C 77 % 1023,2 hPa 0,0 l/m 0,0 km/h (0 Bft) O-NO 66 0 min 0,000 mm 0,0 UV-I 0 W/m 11,6 C 15,6 C 0,0 km/h (0 Bft) 0,00 %
03.07.2015 04:20 15,6 C 76 % 1023,1 hPa 0,0 l/m 0,0 km/h (0 Bft) O-NO 66 0 min 0,000 mm 0,0 UV-I 0 W/m 11,4 C 15,6 C 0,0 km/h (0 Bft) 0,00 %
03.07.2015 04:25 15,5 C 77 % 1023,4 hPa 0,0 l/m 0,0 km/h (0 Bft) O-NO 66 0 min 0,000 mm 0,0 UV-I 0 W/m 11,5 C 15,5 C 0,0 km/h (0 Bft) 0,00 %
03.07.2015 04:30 15,5 C 77 % 1023,4 hPa 0,0 l/m 0,0 km/h (0 Bft) O-NO 66 0 min 0,000 mm 0,0 UV-I 0 W/m 11,5 C 15,5 C 0,0 km/h (0 Bft) 0,00 %
03.07.2015 04:35 15,4 C 79 % 1023,4 hPa 0,0 l/m 0,0 km/h (0 Bft) O-NO 66 0 min 0,000 mm 0,0 UV-I 0 W/m 11,8 C 15,4 C 0,0 km/h (0 Bft) 0,00 %
03.07.2015 04:40 15,3 C 79 % 1023,2 hPa 0,0 l/m 0,0 km/h (0 Bft) O-NO 63 0 min 0,000 mm 0,0 UV-I 0 W/m 11,7 C 15,3 C 0,0 km/h (0 Bft) 0,00 %
03.07.2015 04:45 15,2 C 79 % 1023,4 hPa 0,0 l/m 0,0 km/h (0 Bft) O-NO 68 0 min 0,000 mm 0,0 UV-I 0 W/m 11,6 C 15,2 C 0,0 km/h (0 Bft) 0,00 %
03.07.2015 04:50 15,2 C 77 % 1023,6 hPa 0,0 l/m 0,0 km/h (0 Bft) O-NO 63 0 min 0,000 mm 0,0 UV-I 0 W/m 11,2 C 15,2 C 0,0 km/h (0 Bft) 0,00 %
03.07.2015 04:55 15,2 C 79 % 1023,8 hPa 0,0 l/m 0,0 km/h (0 Bft) N 352 0 min 0,000 mm 0,0 UV-I 0 W/m 11,6 C 15,2 C 0,0 km/h (0 Bft) 0,00 %
03.07.2015 05:00 15,2 C 79 % 1023,9 hPa 0,0 l/m 0,0 km/h (0 Bft) N 352 0 min 0,000 mm 0,0 UV-I 0 W/m 11,6 C 15,2 C 0,0 km/h (0 Bft) 0,00 %
03.07.2015 05:05 15,2 C 80 % 1024,0 hPa 0,0 l/m 0,0 km/h (0 Bft) N 352 0 min 0,000 mm 0,0 UV-I 0 W/m 11,8 C 15,2 C 0,0 km/h (0 Bft) 0,00 %
03.07.2015 05:10 15,1 C 81 % 1023,8 hPa 0,0 l/m 0,0 km/h (0 Bft) NO 53 0 min 0,000 mm 0,0 UV-I 0 W/m 11,9 C 15,1 C 0,0 km/h (0 Bft) 0,00 %
03.07.2015 05:15 14,8 C 81 % 1024,1 hPa 0,0 l/m 0,0 km/h (0 Bft) O-NO 59 0 min 0,000 mm 0,0 UV-I 1 W/m 11,6 C 14,8 C 0,0 km/h (0 Bft) 0,00 %
03.07.2015 05:20 14,8 C 81 % 1024,2 hPa 0,0 l/m 0,0 km/h (0 Bft) NO 43 0 min 0,000 mm 0,0 UV-I 4 W/m 11,6 C 14,8 C 0,0 km/h (0 Bft) 0,00 %
03.07.2015 05:25 14,8 C 82 % 1024,3 hPa 0,0 l/m 0,0 km/h (0 Bft) N 356 0 min 0,000 mm 0,0 UV-I 9 W/m 11,8 C 14,8 C 0,0 km/h (0 Bft) 0,00 %
03.07.2015 05:30 14,8 C 82 % 1024,1 hPa 0,0 l/m 0,0 km/h (0 Bft) N-NO 20 0 min 0,000 mm 0,0 UV-I 18 W/m 11,8 C 14,8 C 0,0 km/h (0 Bft) 0,00 %
03.07.2015 05:35 14,9 C 83 % 1024,0 hPa 0,0 l/m 0,0 km/h (0 Bft) NO 50 0 min 0,000 mm 0,0 UV-I 24 W/m 12,0 C 14,9 C 0,0 km/h (0 Bft) 0,00 %
03.07.2015 05:40 14,9 C 83 % 1024,3 hPa 0,0 l/m 0,0 km/h (0 Bft) NO 50 0 min 0,000 mm 0,0 UV-I 30 W/m 12,0 C 14,9 C 0,0 km/h (0 Bft) 0,00 %
03.07.2015 05:45 14,9 C 81 % 1024,1 hPa 0,0 l/m 0,0 km/h (0 Bft) O-NO 63 0 min 0,000 mm 0,0 UV-I 37 W/m 11,7 C 14,9 C 0,0 km/h (0 Bft) 0,00 %
03.07.2015 05:50 15,1 C 80 % 1024,2 hPa 0,0 l/m 0,0 km/h (0 Bft) O-NO 61 5 min 0,000 mm 0,0 UV-I 48 W/m 11,7 C 15,1 C 0,0 km/h (0 Bft) 0,00 %
03.07.2015 05:55 15,5 C 78 % 1024,4 hPa 0,0 l/m 0,0 km/h (0 Bft) O 80 5 min 0,000 mm 0,0 UV-I 104 W/m 11,7 C 15,5 C 0,0 km/h (0 Bft) 0,00 %
03.07.2015 06:00 16,4 C 75 % 1024,2 hPa 0,0 l/m 0,0 km/h (0 Bft) O 83 5 min 0,000 mm 0,0 UV-I 125 W/m 12,0 C 16,4 C 0,0 km/h (0 Bft) 0,00 %
03.07.2015 06:05 17,3 C 70 % 1024,1 hPa 0,0 l/m 0,0 km/h (0 Bft) NO 35 5 min 0,000 mm 0,0 UV-I 148 W/m 11,8 C 17,3 C 0,0 km/h (0 Bft) 0,00 %
03.07.2015 06:10 18,0 C 70 % 1024,0 hPa 0,0 l/m 0,0 km/h (0 Bft) N-NO 19 5 min 0,000 mm 0,0 UV-I 170 W/m 12,4 C 18,0 C 0,0 km/h (0 Bft) 0,00 %
03.07.2015 06:15 18,4 C 69 % 1024,0 hPa 0,0 l/m 0,0 km/h (0 Bft) N-NO 24 5 min 0,000 mm 0,0 UV-I 190 W/m 12,6 C 18,4 C 0,0 km/h (0 Bft) 0,00 %
03.07.2015 06:20 18,7 C 68 % 1023,9 hPa 0,0 l/m 0,0 km/h (0 Bft) NO 44 5 min 0,000 mm 0,0 UV-I 207 W/m 12,7 C 18,7 C 0,0 km/h (0 Bft) 0,00 %
03.07.2015 06:25 19,2 C 65 % 1023,9 hPa 0,0 l/m 0,0 km/h (0 Bft) NO 45 5 min 0,000 mm 1,0 UV-I 225 W/m 12,5 C 19,2 C 0,0 km/h (0 Bft) 0,00 %
03.07.2015 06:30 19,7 C 64 % 1023,9 hPa 0,0 l/m 0,0 km/h (0 Bft) NO 46 5 min 0,000 mm 1,0 UV-I 246 W/m 12,7 C 19,7 C 0,0 km/h (0 Bft) 0,00 %
03.07.2015 06:35 20,0 C 63 % 1023,9 hPa 0,0 l/m 0,0 km/h (0 Bft) NO 47 5 min 0,000 mm 1,0 UV-I 269 W/m 12,7 C 20,0 C 0,0 km/h (0 Bft) 0,00 %
03.07.2015 06:40 20,3 C 63 % 1023,9 hPa 0,0 l/m 0,0 km/h (0 Bft) NO 36 5 min 0,000 mm 1,0 UV-I 287 W/m 13,0 C 20,3 C 0,0 km/h (0 Bft) 0,00 %
03.07.2015 06:45 20,8 C 60 % 1023,8 hPa 0,0 l/m 0,0 km/h (0 Bft) NO 39 5 min 0,000 mm 1,0 UV-I 306 W/m 12,7 C 20,8 C 0,0 km/h (0 Bft) 0,00 %
03.07.2015 06:50 21,5 C 60 % 1023,8 hPa 0,0 l/m 0,0 km/h (0 Bft) NO 43 5 min 0,000 mm 1,0 UV-I 322 W/m 13,4 C 21,5 C 0,0 km/h (0 Bft) 0,00 %
03.07.2015 06:55 22,1 C 56 % 1023,8 hPa 0,0 l/m 0,0 km/h (0 Bft) O-NO 63 5 min 0,000 mm 1,0 UV-I 347 W/m 12,9 C 22,1 C 0,0 km/h (0 Bft) 0,00 %
03.07.2015 07:00 22,3 C 54 % 1023,6 hPa 0,0 l/m 0,4 km/h (0 Bft) O 99 5 min 0,000 mm 1,0 UV-I 361 W/m 12,5 C 22,3 C 4,0 km/h (1 Bft) 0,00 %
03.07.2015 07:05 22,3 C 55 % 1023,9 hPa 0,0 l/m 0,0 km/h (0 Bft) O-NO 62 5 min 0,000 mm 1,0 UV-I 368 W/m 12,8 C 22,3 C 0,0 km/h (0 Bft) 0,00 %
03.07.2015 07:10 22,3 C 55 % 1023,9 hPa 0,0 l/m 4,3 km/h (1 Bft) O 90 5 min 0,000 mm 1,0 UV-I 383 W/m 12,8 C 22,3 C 7,9 km/h (2 Bft) 0,00 %
03.07.2015 07:15 22,3 C 54 % 1023,6 hPa 0,0 l/m 1,4 km/h (1 Bft) O 86 5 min 0,000 mm 1,0 UV-I 392 W/m 12,5 C 22,3 C 4,0 km/h (1 Bft) 0,00 %
03.07.2015 07:20 22,3 C 56 % 1024,0 hPa 0,0 l/m 0,0 km/h (0 Bft) O-NO 61 5 min 0,000 mm 1,0 UV-I 401 W/m 13,1 C 22,3 C 0,0 km/h (0 Bft) 0,00 %
03.07.2015 07:25 22,3 C 56 % 1023,9 hPa 0,0 l/m 0,0 km/h (0 Bft) NO 48 5 min 0,000 mm 1,0 UV-I 412 W/m 13,1 C 22,3 C 0,0 km/h (0 Bft) 0,00 %
03.07.2015 07:30 22,4 C 54 % 1023,7 hPa 0,0 l/m 0,0 km/h (0 Bft) NO 55 5 min 0,000 mm 1,0 UV-I 416 W/m 12,6 C 22,4 C 0,0 km/h (0 Bft) 0,00 %
03.07.2015 07:35 22,6 C 56 % 1023,8 hPa 0,0 l/m 0,0 km/h (0 Bft) N-NO 30 5 min 0,000 mm 1,0 UV-I 423 W/m 13,4 C 22,6 C 0,0 km/h (0 Bft) 0,00 %
03.07.2015 07:40 22,6 C 57 % 1023,9 hPa 0,0 l/m 0,0 km/h (0 Bft) O-NO 78 5 min 0,000 mm 1,0 UV-I 429 W/m 13,6 C 22,6 C 0,0 km/h (0 Bft) 0,00 %
03.07.2015 07:45 22,6 C 58 % 1023,9 hPa 0,0 l/m 0,0 km/h (0 Bft) O-NO 63 5 min 0,000 mm 1,0 UV-I 435 W/m 13,9 C 22,6 C 0,0 km/h (0 Bft) 0,00 %
03.07.2015 07:50 22,7 C 54 % 1023,7 hPa 0,0 l/m 2,2 km/h (1 Bft) O-SO 105 5 min 0,000 mm 1,0 UV-I 441 W/m 12,9 C 22,7 C 4,0 km/h (1 Bft) 0,00 %
03.07.2015 07:55 22,9 C 55 % 1023,8 hPa 0,0 l/m 6,8 km/h (2 Bft) O 93 5 min 0,000 mm 1,0 UV-I 445 W/m 13,4 C 22,8 C 11,9 km/h (2 Bft) 0,00 %
03.07.2015 08:00 22,8 C 55 % 1023,8 hPa 0,0 l/m 1,4 km/h (1 Bft) NO 41 5 min 0,000 mm 1,0 UV-I 452 W/m 13,3 C 22,8 C 4,0 km/h (1 Bft) 0,00 %
03.07.2015 08:05 22,8 C 52 % 1023,9 hPa 0,0 l/m 1,8 km/h (1 Bft) O-SO 116 5 min 0,000 mm 1,0 UV-I 457 W/m 12,4 C 22,8 C 4,0 km/h (1 Bft) 0,00 %
03.07.2015 08:10 23,2 C 51 % 1023,8 hPa 0,0 l/m 6,8 km/h (2 Bft) O 98 5 min 0,000 mm 1,0 UV-I 425 W/m 12,5 C 23,1 C 7,9 km/h (2 Bft) 0,00 %
03.07.2015 08:15 23,4 C 53 % 1023,9 hPa 0,0 l/m 4,0 km/h (1 Bft) O 89 5 min 0,000 mm 1,0 UV-I 464 W/m 13,3 C 23,4 C 7,9 km/h (2 Bft) 0,00 %
03.07.2015 08:20 23,3 C 52 % 1023,9 hPa 0,0 l/m 4,7 km/h (1 Bft) O 95 5 min 0,000 mm 2,0 UV-I 472 W/m 12,9 C 23,3 C 7,9 km/h (2 Bft) 0,00 %
03.07.2015 08:25 23,1 C 53 % 1023,8 hPa 0,0 l/m 6,5 km/h (2 Bft) SO 140 5 min 0,000 mm 2,0 UV-I 477 W/m 13,0 C 23,1 C 11,9 km/h (2 Bft) 0,00 %
03.07.2015 08:30 23,2 C 53 % 1023,8 hPa 0,0 l/m 6,5 km/h (2 Bft) O-SO 112 5 min 0,000 mm 2,0 UV-I 481 W/m 13,1 C 23,2 C 7,9 km/h (2 Bft) 0,00 %
03.07.2015 08:35 23,4 C 52 % 1023,9 hPa 0,0 l/m 5,8 km/h (2 Bft) O-SO 103 5 min 0,000 mm 2,0 UV-I 489 W/m 13,0 C 23,4 C 7,9 km/h (2 Bft) 0,00 %
03.07.2015 08:40 23,4 C 53 % 1023,7 hPa 0,0 l/m 1,4 km/h (1 Bft) O-NO 75 5 min 0,000 mm 2,0 UV-I 483 W/m 13,3 C 23,4 C 4,0 km/h (1 Bft) 0,00 %
03.07.2015 08:45 23,4 C 53 % 1023,7 hPa 0,0 l/m 6,8 km/h (2 Bft) NO 41 5 min 0,000 mm 2,0 UV-I 504 W/m 13,3 C 23,3 C 11,9 km/h (2 Bft) 0,00 %
03.07.2015 08:50 23,4 C 53 % 1023,7 hPa 0,0 l/m 0,7 km/h (0 Bft) O-NO 69 5 min 0,000 mm 2,0 UV-I 511 W/m 13,3 C 23,4 C 4,0 km/h (1 Bft) 0,00 %
03.07.2015 08:55 23,8 C 51 % 1023,7 hPa 0,0 l/m 4,7 km/h (1 Bft) O-SO 117 5 min 0,000 mm 2,0 UV-I 518 W/m 13,0 C 23,8 C 7,9 km/h (2 Bft) 0,00 %
03.07.2015 09:00 24,2 C 50 % 1023,8 hPa 0,0 l/m 4,3 km/h (1 Bft) O-SO 104 5 min 0,000 mm 2,0 UV-I 508 W/m 13,1 C 24,2 C 7,9 km/h (2 Bft) 0,00 %
03.07.2015 09:05 24,5 C 49 % 1023,7 hPa 0,0 l/m 5,8 km/h (2 Bft) SO 127 5 min 0,000 mm 2,0 UV-I 535 W/m 13,1 C 24,5 C 7,9 km/h (2 Bft) 0,00 %
03.07.2015 09:10 24,5 C 49 % 1023,8 hPa 0,0 l/m 0,0 km/h (0 Bft) O-NO 77 5 min 0,000 mm 2,0 UV-I 540 W/m 13,1 C 24,5 C 0,0 km/h (0 Bft) 0,00 %
03.07.2015 09:15 24,5 C 48 % 1023,8 hPa 0,0 l/m 10,4 km/h (2 Bft) O-SO 104 5 min 0,000 mm 2,0 UV-I 548 W/m 12,8 C 23,5 C 11,9 km/h (2 Bft) 0,00 %
03.07.2015 09:20 24,7 C 48 % 1023,6 hPa 0,0 l/m 0,7 km/h (0 Bft) SO 124 5 min 0,000 mm 2,0 UV-I 561 W/m 12,9 C 24,7 C 4,0 km/h (1 Bft) 0,00 %
03.07.2015 09:25 25,1 C 46 % 1023,4 hPa 0,0 l/m 1,4 km/h (1 Bft) O-NO 70 5 min 0,000 mm 2,0 UV-I 572 W/m 12,7 C 25,1 C 4,0 km/h (1 Bft) 0,00 %
03.07.2015 09:30 25,6 C 46 % 1023,4 hPa 0,0 l/m 0,7 km/h (0 Bft) N 5 5 min 0,000 mm 2,0 UV-I 586 W/m 13,1 C 25,6 C 4,0 km/h (1 Bft) 0,00 %
03.07.2015 09:35 25,7 C 48 % 1023,5 hPa 0,0 l/m 2,9 km/h (1 Bft) O 94 5 min 0,000 mm 2,0 UV-I 596 W/m 13,9 C 25,7 C 4,0 km/h (1 Bft) 0,00 %
03.07.2015 09:40 25,7 C 47 % 1023,4 hPa 0,0 l/m 2,2 km/h (1 Bft) N 351 5 min 0,000 mm 2,0 UV-I 607 W/m 13,5 C 25,7 C 4,0 km/h (1 Bft) 0,00 %
03.07.2015 09:45 25,6 C 48 % 1023,5 hPa 0,0 l/m 1,8 km/h (1 Bft) O-NO 65 5 min 0,000 mm 2,0 UV-I 613 W/m 13,8 C 25,6 C 4,0 km/h (1 Bft) 0,00 %
03.07.2015 09:50 25,5 C 49 % 1023,5 hPa 0,0 l/m 1,4 km/h (1 Bft) N-NO 32 5 min 0,000 mm 3,0 UV-I 622 W/m 14,0 C 25,5 C 4,0 km/h (1 Bft) 0,00 %
03.07.2015 09:55 25,4 C 47 % 1023,5 hPa 0,0 l/m 1,8 km/h (1 Bft) O-NO 58 5 min 0,000 mm 3,0 UV-I 629 W/m 13,3 C 25,4 C 4,0 km/h (1 Bft) 0,00 %
03.07.2015 10:00 25,6 C 47 % 1023,5 hPa 0,0 l/m 0,0 km/h (0 Bft) O-NO 73 5 min 0,000 mm 3,0 UV-I 642 W/m 13,4 C 25,6 C 0,0 km/h (0 Bft) 0,00 %
03.07.2015 10:05 25,9 C 47 % 1023,4 hPa 0,0 l/m 7,2 km/h (2 Bft) SO 134 5 min 0,000 mm 3,0 UV-I 659 W/m 13,7 C 25,7 C 7,9 km/h (2 Bft) 0,00 %
03.07.2015 10:10 25,9 C 48 % 1023,3 hPa 0,0 l/m 0,0 km/h (0 Bft) N-NO 25 5 min 0,000 mm 3,0 UV-I 661 W/m 14,0 C 25,9 C 0,0 km/h (0 Bft) 0,00 %
03.07.2015 10:15 25,8 C 47 % 1023,3 hPa 0,0 l/m 0,4 km/h (0 Bft) O-NO 71 5 min 0,000 mm 3,0 UV-I 674 W/m 13,6 C 25,8 C 4,0 km/h (1 Bft) 0,00 %
03.07.2015 10:20 25,7 C 48 % 1023,7 hPa 0,0 l/m 0,7 km/h (0 Bft) NO 52 5 min 0,000 mm 3,0 UV-I 682 W/m 13,9 C 25,7 C 4,0 km/h (1 Bft) 0,00 %
03.07.2015 10:25 25,9 C 46 % 1023,3 hPa 0,0 l/m 1,8 km/h (1 Bft) O-NO 68 5 min 0,000 mm 3,0 UV-I 694 W/m 13,4 C 25,9 C 4,0 km/h (1 Bft) 0,00 %
03.07.2015 10:30 26,1 C 47 % 1023,4 hPa 0,0 l/m 6,5 km/h (2 Bft) O 91 5 min 0,000 mm 3,0 UV-I 706 W/m 13,9 C 26,1 C 7,9 km/h (2 Bft) 0,00 %
03.07.2015 10:35 26,6 C 44 % 1023,1 hPa 0,0 l/m 0,4 km/h (0 Bft) O 86 5 min 0,000 mm 3,0 UV-I 713 W/m 13,3 C 26,6 C 4,0 km/h (1 Bft) 0,00 %
03.07.2015 10:40 27,0 C 46 % 1023,3 hPa 0,0 l/m 4,7 km/h (1 Bft) O-NO 65 5 min 0,000 mm 3,0 UV-I 726 W/m 14,4 C 27,0 C 7,9 km/h (2 Bft) 0,00 %
03.07.2015 10:45 26,9 C 47 % 1023,1 hPa 0,0 l/m 1,4 km/h (1 Bft) O 87 5 min 0,000 mm 3,0 UV-I 734 W/m 14,6 C 26,9 C 4,0 km/h (1 Bft) 0,00 %
03.07.2015 10:50 26,7 C 47 % 1023,3 hPa 0,0 l/m 0,4 km/h (0 Bft) O-NO 71 5 min 0,000 mm 4,0 UV-I 738 W/m 14,4 C 26,7 C 4,0 km/h (1 Bft) 0,00 %
03.07.2015 10:55 26,9 C 46 % 1023,3 hPa 0,0 l/m 2,9 km/h (1 Bft) O 92 5 min 0,000 mm 4,0 UV-I 750 W/m 14,3 C 26,9 C 7,9 km/h (2 Bft) 0,00 %
03.07.2015 11:00 27,0 C 46 % 1023,2 hPa 0,0 l/m 0,4 km/h (0 Bft) NO 43 5 min 0,000 mm 4,0 UV-I 752 W/m 14,4 C 27,0 C 4,0 km/h (1 Bft) 0,00 %
03.07.2015 11:05 27,1 C 49 % 1023,3 hPa 0,0 l/m 1,8 km/h (1 Bft) O-NO 69 5 min 0,000 mm 4,0 UV-I 763 W/m 15,4 C 27,1 C 4,0 km/h (1 Bft) 0,00 %
03.07.2015 11:10 27,1 C 48 % 1023,4 hPa 0,0 l/m 7,9 km/h (2 Bft) O-SO 109 5 min 0,000 mm 4,0 UV-I 765 W/m 15,1 C 26,8 C 7,9 km/h (2 Bft) 0,00 %
03.07.2015 11:15 27,1 C 48 % 1023,3 hPa 0,0 l/m 3,2 km/h (1 Bft) O-SO 117 5 min 0,000 mm 4,0 UV-I 773 W/m 15,1 C 27,1 C 4,0 km/h (1 Bft) 0,00 %
03.07.2015 11:20 27,2 C 47 % 1023,3 hPa 0,0 l/m 6,5 km/h (2 Bft) O-SO 114 5 min 0,000 mm 4,0 UV-I 776 W/m 14,9 C 27,2 C 7,9 km/h (2 Bft) 0,00 %
03.07.2015 11:25 27,3 C 46 % 1023,3 hPa 0,0 l/m 0,0 km/h (0 Bft) NO 37 5 min 0,000 mm 4,0 UV-I 782 W/m 14,6 C 27,3 C 0,0 km/h (0 Bft) 0,00 %
03.07.2015 11:30 27,3 C 46 % 1023,1 hPa 0,0 l/m 0,0 km/h (0 Bft) O-NO 59 5 min 0,000 mm 4,0 UV-I 791 W/m 14,6 C 27,3 C 0,0 km/h (0 Bft) 0,00 %
03.07.2015 11:35 27,5 C 46 % 1023,1 hPa 0,0 l/m 0,0 km/h (0 Bft) NO 52 5 min 0,000 mm 5,0 UV-I 801 W/m 14,8 C 27,5 C 0,0 km/h (0 Bft) 0,00 %
03.07.2015 11:40 28,0 C 45 % 1023,1 hPa 0,0 l/m 2,2 km/h (1 Bft) O 99 5 min 0,000 mm 5,0 UV-I 815 W/m 14,9 C 28,0 C 4,0 km/h (1 Bft) 0,00 %
03.07.2015 11:45 28,3 C 45 % 1022,9 hPa 0,0 l/m 9,4 km/h (2 Bft) O 85 5 min 0,000 mm 5,0 UV-I 808 W/m 15,2 C 27,9 C 11,9 km/h (2 Bft) 0,00 %
03.07.2015 11:50 28,1 C 49 % 1023,0 hPa 0,0 l/m 0,0 km/h (0 Bft) NO 47 5 min 0,000 mm 5,0 UV-I 814 W/m 16,4 C 28,1 C 0,0 km/h (0 Bft) 0,00 %
03.07.2015 11:55 27,7 C 47 % 1023,0 hPa 0,0 l/m 0,7 km/h (0 Bft) O 83 5 min 0,000 mm 5,0 UV-I 819 W/m 15,3 C 27,7 C 4,0 km/h (1 Bft) 0,00 %
03.07.2015 12:00 27,6 C 46 % 1023,1 hPa 0,0 l/m 0,0 km/h (0 Bft) NO 37 5 min 0,000 mm 5,0 UV-I 834 W/m 14,9 C 27,6 C 0,0 km/h (0 Bft) 0,00 %
03.07.2015 12:05 27,8 C 47 % 1023,1 hPa 0,0 l/m 2,2 km/h (1 Bft) O-SO 115 5 min 0,000 mm 5,0 UV-I 836 W/m 15,4 C 27,8 C 4,0 km/h (1 Bft) 0,00 %
03.07.2015 12:10 27,8 C 49 % 1023,0 hPa 0,0 l/m 0,0 km/h (0 Bft) O-NO 70 5 min 0,000 mm 5,0 UV-I 837 W/m 16,1 C 27,8 C 0,0 km/h (0 Bft) 0,00 %
03.07.2015 12:15 27,8 C 50 % 1023,0 hPa 0,0 l/m 0,0 km/h (0 Bft) O-NO 69 5 min 0,000 mm 5,0 UV-I 846 W/m 16,4 C 27,8 C 0,0 km/h (0 Bft) 0,00 %
03.07.2015 12:20 27,9 C 46 % 1022,8 hPa 0,0 l/m 4,0 km/h (1 Bft) S-SW 207 5 min 0,000 mm 5,0 UV-I 843 W/m 15,2 C 27,9 C 7,9 km/h (2 Bft) 0,00 %
03.07.2015 12:25 27,9 C 48 % 1023,0 hPa 0,0 l/m 3,2 km/h (1 Bft) N-NO 23 5 min 0,000 mm 5,0 UV-I 848 W/m 15,9 C 27,9 C 4,0 km/h (1 Bft) 0,00 %
03.07.2015 12:30 27,8 C 47 % 1023,0 hPa 0,0 l/m 2,2 km/h (1 Bft) O 97 5 min 0,000 mm 5,0 UV-I 851 W/m 15,4 C 27,8 C 4,0 km/h (1 Bft) 0,00 %
03.07.2015 12:35 27,9 C 47 % 1022,8 hPa 0,0 l/m 0,4 km/h (0 Bft) NO 36 5 min 0,000 mm 5,0 UV-I 857 W/m 15,5 C 27,9 C 4,0 km/h (1 Bft) 0,00 %
03.07.2015 12:40 27,9 C 46 % 1022,8 hPa 0,0 l/m 4,7 km/h (1 Bft) O 98 5 min 0,000 mm 5,0 UV-I 867 W/m 15,2 C 27,9 C 7,9 km/h (2 Bft) 0,00 %
03.07.2015 12:45 28,0 C 47 % 1022,6 hPa 0,0 l/m 0,0 km/h (0 Bft) NO 51 5 min 0,000 mm 5,0 UV-I 874 W/m 15,6 C 28,0 C 0,0 km/h (0 Bft) 0,00 %
03.07.2015 12:50 28,2 C 48 % 1022,8 hPa 0,0 l/m 0,4 km/h (0 Bft) NO 35 5 min 0,000 mm 5,0 UV-I 885 W/m 16,1 C 28,2 C 4,0 km/h (1 Bft) 0,00 %
03.07.2015 12:55 28,5 C 46 % 1022,7 hPa 0,0 l/m 2,2 km/h (1 Bft) N-NO 24 5 min 0,000 mm 6,0 UV-I 881 W/m 15,7 C 28,5 C 4,0 km/h (1 Bft) 0,00 %
03.07.2015 13:00 28,4 C 47 % 1022,8 hPa 0,0 l/m 0,0 km/h (0 Bft) O 88 5 min 0,000 mm 6,0 UV-I 883 W/m 16,0 C 28,4 C 0,0 km/h (0 Bft) 0,00 %
03.07.2015 13:05 28,3 C 47 % 1022,7 hPa 0,0 l/m 0,7 km/h (0 Bft) N-NO 25 5 min 0,000 mm 6,0 UV-I 893 W/m 15,9 C 28,3 C 4,0 km/h (1 Bft) 0,00 %
03.07.2015 13:10 28,4 C 46 % 1022,8 hPa 0,0 l/m 4,3 km/h (1 Bft) S-SO 167 5 min 0,000 mm 5,0 UV-I 895 W/m 15,6 C 28,4 C 7,9 km/h (2 Bft) 0,00 %
03.07.2015 13:15 28,6 C 46 % 1022,7 hPa 0,0 l/m 6,8 km/h (2 Bft) O 96 5 min 0,000 mm 5,0 UV-I 897 W/m 15,8 C 28,5 C 7,9 km/h (2 Bft) 0,00 %
03.07.2015 13:20 28,8 C 46 % 1022,7 hPa 0,0 l/m 4,0 km/h (1 Bft) O-NO 63 5 min 0,000 mm 5,0 UV-I 900 W/m 16,0 C 28,8 C 7,9 km/h (2 Bft) 0,00 %
03.07.2015 13:25 28,8 C 47 % 1022,6 hPa 0,0 l/m 0,0 km/h (0 Bft) W 267 5 min 0,000 mm 5,0 UV-I 905 W/m 16,3 C 28,8 C 0,0 km/h (0 Bft) 0,00 %
03.07.2015 13:30 28,9 C 44 % 1022,8 hPa 0,0 l/m 4,0 km/h (1 Bft) O-SO 122 5 min 0,000 mm 5,0 UV-I 908 W/m 15,4 C 28,9 C 7,9 km/h (2 Bft) 0,00 %
03.07.2015 13:35 29,0 C 45 % 1022,6 hPa 0,0 l/m 5,4 km/h (1 Bft) O-NO 66 5 min 0,000 mm 5,0 UV-I 912 W/m 15,8 C 29,0 C 7,9 km/h (2 Bft) 0,00 %
03.07.2015 13:40 29,0 C 43 % 1022,7 hPa 0,0 l/m 8,3 km/h (2 Bft) O-SO 109 5 min 0,000 mm 5,0 UV-I 913 W/m 15,1 C 28,8 C 11,9 km/h (2 Bft) 0,00 %
03.07.2015 13:45 29,1 C 46 % 1022,8 hPa 0,0 l/m 5,4 km/h (1 Bft) O 100 5 min 0,000 mm 5,0 UV-I 921 W/m 16,3 C 29,1 C 7,9 km/h (2 Bft) 0,00 %
03.07.2015 13:50 29,2 C 43 % 1022,8 hPa 0,0 l/m 6,5 km/h (2 Bft) O 96 5 min 0,000 mm 5,0 UV-I 933 W/m 15,3 C 29,2 C 7,9 km/h (2 Bft) 0,00 %
03.07.2015 13:55 29,4 C 42 % 1022,6 hPa 0,0 l/m 4,0 km/h (1 Bft) O-NO 61 5 min 0,000 mm 5,0 UV-I 947 W/m 15,1 C 29,4 C 7,9 km/h (2 Bft) 0,00 %
03.07.2015 14:00 29,6 C 42 % 1022,6 hPa 0,0 l/m 4,3 km/h (1 Bft) O-SO 109 5 min 0,000 mm 5,0 UV-I 950 W/m 15,3 C 29,6 C 7,9 km/h (2 Bft) 0,00 %
03.07.2015 14:05 29,8 C 41 % 1022,4 hPa 0,0 l/m 4,7 km/h (1 Bft) NO 56 5 min 0,000 mm 5,0 UV-I 946 W/m 15,1 C 29,8 C 7,9 km/h (2 Bft) 0,00 %
03.07.2015 14:10 29,8 C 41 % 1022,5 hPa 0,0 l/m 1,8 km/h (1 Bft) NO 52 5 min 0,000 mm 5,0 UV-I 951 W/m 15,1 C 29,8 C 4,0 km/h (1 Bft) 0,00 %
03.07.2015 14:15 29,6 C 41 % 1022,6 hPa 0,0 l/m 2,9 km/h (1 Bft) O-SO 116 5 min 0,000 mm 5,0 UV-I 951 W/m 14,9 C 29,6 C 4,0 km/h (1 Bft) 0,00 %
03.07.2015 14:20 29,5 C 40 % 1022,3 hPa 0,0 l/m 0,4 km/h (0 Bft) O 94 5 min 0,000 mm 5,0 UV-I 939 W/m 14,5 C 29,5 C 4,0 km/h (1 Bft) 0,00 %
03.07.2015 14:25 29,7 C 41 % 1022,4 hPa 0,0 l/m 0,4 km/h (0 Bft) O-NO 68 5 min 0,000 mm 5,0 UV-I 954 W/m 15,0 C 29,7 C 4,0 km/h (1 Bft) 0,00 %
03.07.2015 14:30 29,8 C 40 % 1022,3 hPa 0,0 l/m 0,0 km/h (0 Bft) O-NO 71 5 min 0,000 mm 5,0 UV-I 957 W/m 14,7 C 29,8 C 0,0 km/h (0 Bft) 0,00 %
03.07.2015 14:35 30,0 C 39 % 1022,2 hPa 0,0 l/m 0,0 km/h (0 Bft) N-NO 31 5 min 0,000 mm 5,0 UV-I 966 W/m 14,5 C 30,0 C 0,0 km/h (0 Bft) 0,00 %
03.07.2015 14:40 30,3 C 36 % 1022,1 hPa 0,0 l/m 0,0 km/h (0 Bft) N-NO 15 5 min 0,000 mm 5,0 UV-I 959 W/m 13,5 C 30,3 C 0,0 km/h (0 Bft) 0,00 %
03.07.2015 14:45 30,6 C 39 % 1022,0 hPa 0,0 l/m 1,4 km/h (1 Bft) NO 56 5 min 0,000 mm 5,0 UV-I 987 W/m 15,0 C 30,6 C 4,0 km/h (1 Bft) 0,00 %
03.07.2015 14:50 30,5 C 35 % 1021,9 hPa 0,0 l/m 0,0 km/h (0 Bft) O 79 5 min 0,000 mm 5,0 UV-I 988 W/m 13,3 C 30,5 C 0,0 km/h (0 Bft) 0,00 %
03.07.2015 14:55 30,5 C 39 % 1022,2 hPa 0,0 l/m 0,0 km/h (0 Bft) O-NO 75 5 min 0,000 mm 5,0 UV-I 994 W/m 15,0 C 30,5 C 0,0 km/h (0 Bft) 0,00 %
03.07.2015 15:00 30,8 C 35 % 1022,0 hPa 0,0 l/m 0,4 km/h (0 Bft) NO 51 5 min 0,000 mm 5,0 UV-I 974 W/m 13,5 C 30,8 C 4,0 km/h (1 Bft) 0,00 %
03.07.2015 15:05 31,1 C 33 % 1022,0 hPa 0,0 l/m 0,0 km/h (0 Bft) O-NO 62 5 min 0,000 mm 5,0 UV-I 982 W/m 12,9 C 31,1 C 0,0 km/h (0 Bft) 0,00 %
03.07.2015 15:10 31,2 C 32 % 1021,8 hPa 0,0 l/m 0,0 km/h (0 Bft) O-NO 63 5 min 0,000 mm 5,0 UV-I 984 W/m 12,5 C 31,2 C 0,0 km/h (0 Bft) 0,00 %
03.07.2015 15:15 31,3 C 34 % 1021,8 hPa 0,0 l/m 0,0 km/h (0 Bft) NO 46 5 min 0,000 mm 4,0 UV-I 986 W/m 13,5 C 31,3 C 0,0 km/h (0 Bft) 0,00 %
03.07.2015 15:20 31,3 C 30 % 1021,9 hPa 0,0 l/m 0,0 km/h (0 Bft) NO 44 5 min 0,000 mm 4,0 UV-I 980 W/m 11,6 C 31,3 C 0,0 km/h (0 Bft) 0,00 %
03.07.2015 15:25 31,2 C 32 % 1021,6 hPa 0,0 l/m 2,9 km/h (1 Bft) O-SO 109 5 min 0,000 mm 4,0 UV-I 984 W/m 12,5 C 31,2 C 4,0 km/h (1 Bft) 0,00 %
03.07.2015 15:30 31,1 C 34 % 1021,9 hPa 0,0 l/m 3,2 km/h (1 Bft) N-NW 345 5 min 0,000 mm 4,0 UV-I 976 W/m 13,4 C 31,1 C 4,0 km/h (1 Bft) 0,00 %
03.07.2015 15:35 31,0 C 33 % 1021,7 hPa 0,0 l/m 0,7 km/h (0 Bft) O 94 5 min 0,000 mm 4,0 UV-I 970 W/m 12,8 C 31,0 C 4,0 km/h (1 Bft) 0,00 %
03.07.2015 15:40 31,0 C 36 % 1021,9 hPa 0,0 l/m 1,8 km/h (1 Bft) O 94 5 min 0,000 mm 4,0 UV-I 976 W/m 14,2 C 31,0 C 4,0 km/h (1 Bft) 0,00 %
03.07.2015 15:45 30,9 C 36 % 1021,8 hPa 0,0 l/m 1,8 km/h (1 Bft) NO 49 5 min 0,000 mm 4,0 UV-I 974 W/m 14,1 C 30,9 C 4,0 km/h (1 Bft) 0,00 %
03.07.2015 15:50 30,8 C 30 % 1021,8 hPa 0,0 l/m 1,4 km/h (1 Bft) SO 136 5 min 0,000 mm 4,0 UV-I 977 W/m 11,2 C 30,8 C 4,0 km/h (1 Bft) 0,00 %
03.07.2015 15:55 31,0 C 29 % 1021,6 hPa 0,0 l/m 0,0 km/h (0 Bft) O-NO 67 5 min 0,000 mm 4,0 UV-I 984 W/m 10,9 C 31,0 C 0,0 km/h (0 Bft) 0,00 %
03.07.2015 16:00 31,2 C 29 % 1021,5 hPa 0,0 l/m 2,2 km/h (1 Bft) SO 145 5 min 0,000 mm 4,0 UV-I 982 W/m 11,0 C 31,2 C 4,0 km/h (1 Bft) 0,00 %
03.07.2015 16:05 31,3 C 31 % 1021,3 hPa 0,0 l/m 0,0 km/h (0 Bft) NO 50 5 min 0,000 mm 4,0 UV-I 977 W/m 12,1 C 31,3 C 0,0 km/h (0 Bft) 0,00 %
03.07.2015 16:10 31,3 C 33 % 1021,3 hPa 0,0 l/m 0,0 km/h (0 Bft) NO 46 5 min 0,000 mm 4,0 UV-I 970 W/m 13,1 C 31,3 C 0,0 km/h (0 Bft) 0,00 %
03.07.2015 16:15 31,2 C 34 % 1021,4 hPa 0,0 l/m 3,2 km/h (1 Bft) O 91 5 min 0,000 mm 4,0 UV-I 967 W/m 13,4 C 31,2 C 4,0 km/h (1 Bft) 0,00 %
03.07.2015 16:20 31,2 C 30 % 1021,2 hPa 0,0 l/m 1,4 km/h (1 Bft) O-NO 75 5 min 0,000 mm 3,0 UV-I 966 W/m 11,5 C 31,2 C 4,0 km/h (1 Bft) 0,00 %
03.07.2015 16:25 31,2 C 29 % 1021,0 hPa 0,0 l/m 5,4 km/h (1 Bft) O 95 5 min 0,000 mm 3,0 UV-I 953 W/m 11,0 C 31,2 C 7,9 km/h (2 Bft) 0,00 %
03.07.2015 16:30 31,1 C 33 % 1021,1 hPa 0,0 l/m 4,0 km/h (1 Bft) S-SO 157 5 min 0,000 mm 3,0 UV-I 947 W/m 12,9 C 31,1 C 4,0 km/h (1 Bft) 0,00 %
03.07.2015 16:35 31,0 C 33 % 1020,9 hPa 0,0 l/m 1,8 km/h (1 Bft) O-SO 111 5 min 0,000 mm 3,0 UV-I 937 W/m 12,8 C 31,0 C 4,0 km/h (1 Bft) 0,00 %
03.07.2015 16:40 30,8 C 32 % 1021,2 hPa 0,0 l/m 10,4 km/h (2 Bft) O-SO 116 5 min 0,000 mm 3,0 UV-I 934 W/m 12,2 C 30,5 C 19,8 km/h (3 Bft) 0,00 %
03.07.2015 16:45 30,8 C 33 % 1021,0 hPa 0,0 l/m 0,0 km/h (0 Bft) NO 56 5 min 0,000 mm 3,0 UV-I 943 W/m 12,6 C 30,8 C 0,0 km/h (0 Bft) 0,00 %
03.07.2015 16:50 30,9 C 34 % 1021,1 hPa 0,0 l/m 5,4 km/h (1 Bft) O-SO 102 5 min 0,000 mm 3,0 UV-I 912 W/m 13,2 C 30,9 C 7,9 km/h (2 Bft) 0,00 %
03.07.2015 16:55 30,9 C 32 % 1021,2 hPa 0,0 l/m 3,2 km/h (1 Bft) NO 52 5 min 0,000 mm 3,0 UV-I 839 W/m 12,3 C 30,9 C 4,0 km/h (1 Bft) 0,00 %
03.07.2015 17:00 30,8 C 32 % 1021,1 hPa 0,0 l/m 0,0 km/h (0 Bft) O-SO 114 5 min 0,000 mm 2,0 UV-I 841 W/m 12,2 C 30,8 C 0,0 km/h (0 Bft) 0,00 %
03.07.2015 17:05 30,8 C 32 % 1021,1 hPa 0,0 l/m 1,4 km/h (1 Bft) O 88 5 min 0,000 mm 2,0 UV-I 818 W/m 12,2 C 30,8 C 4,0 km/h (1 Bft) 0,00 %
03.07.2015 17:10 30,8 C 34 % 1020,9 hPa 0,0 l/m 0,4 km/h (0 Bft) N 354 5 min 0,000 mm 2,0 UV-I 782 W/m 13,1 C 30,8 C 4,0 km/h (1 Bft) 0,00 %
03.07.2015 17:15 30,7 C 34 % 1021,0 hPa 0,0 l/m 0,4 km/h (0 Bft) N-NO 29 5 min 0,000 mm 2,0 UV-I 755 W/m 13,0 C 30,7 C 4,0 km/h (1 Bft) 0,00 %
03.07.2015 17:20 30,7 C 37 % 1021,0 hPa 0,0 l/m 7,2 km/h (2 Bft) O-NO 68 5 min 0,000 mm 2,0 UV-I 726 W/m 14,3 C 30,6 C 11,9 km/h (2 Bft) 0,00 %
03.07.2015 17:25 30,5 C 37 % 1020,8 hPa 0,0 l/m 1,4 km/h (1 Bft) NW 318 5 min 0,000 mm 2,0 UV-I 703 W/m 14,1 C 30,5 C 4,0 km/h (1 Bft) 0,00 %
03.07.2015 17:30 30,3 C 38 % 1020,7 hPa 0,0 l/m 2,2 km/h (1 Bft) NO 50 5 min 0,000 mm 2,0 UV-I 725 W/m 14,4 C 30,3 C 4,0 km/h (1 Bft) 0,00 %
03.07.2015 17:35 30,2 C 37 % 1020,7 hPa 0,0 l/m 0,4 km/h (0 Bft) NO 45 5 min 0,000 mm 1,0 UV-I 727 W/m 13,9 C 30,2 C 4,0 km/h (1 Bft) 0,00 %
03.07.2015 17:40 30,2 C 36 % 1020,7 hPa 0,0 l/m 0,0 km/h (0 Bft) O-NO 67 5 min 0,000 mm 1,0 UV-I 649 W/m 13,4 C 30,2 C 0,0 km/h (0 Bft) 0,00 %
03.07.2015 17:45 30,4 C 39 % 1020,5 hPa 0,0 l/m 2,9 km/h (1 Bft) O-SO 104 5 min 0,000 mm 1,0 UV-I 599 W/m 14,9 C 30,4 C 4,0 km/h (1 Bft) 0,00 %
03.07.2015 17:50 30,6 C 38 % 1020,5 hPa 0,0 l/m 4,3 km/h (1 Bft) O 88 5 min 0,000 mm 1,0 UV-I 551 W/m 14,6 C 30,6 C 7,9 km/h (2 Bft) 0,00 %
03.07.2015 17:55 30,6 C 39 % 1020,6 hPa 0,0 l/m 0,4 km/h (0 Bft) O 91 5 min 0,000 mm 1,0 UV-I 605 W/m 15,0 C 30,6 C 4,0 km/h (1 Bft) 0,00 %
03.07.2015 18:00 30,4 C 38 % 1020,6 hPa 0,0 l/m 0,0 km/h (0 Bft) NO 44 5 min 0,000 mm 1,0 UV-I 768 W/m 14,5 C 30,4 C 0,0 km/h (0 Bft) 0,00 %
03.07.2015 18:05 30,3 C 39 % 1020,6 hPa 0,0 l/m 4,0 km/h (1 Bft) O-SO 103 5 min 0,000 mm 1,0 UV-I 715 W/m 14,8 C 30,3 C 7,9 km/h (2 Bft) 0,00 %
03.07.2015 18:10 30,3 C 39 % 1020,5 hPa 0,0 l/m 3,2 km/h (1 Bft) O 81 5 min 0,000 mm 1,0 UV-I 735 W/m 14,8 C 30,3 C 4,0 km/h (1 Bft) 0,00 %
03.07.2015 18:15 30,2 C 40 % 1020,6 hPa 0,0 l/m 0,7 km/h (0 Bft) NO 46 5 min 0,000 mm 1,0 UV-I 737 W/m 15,1 C 30,2 C 4,0 km/h (1 Bft) 0,00 %
03.07.2015 18:20 30,3 C 38 % 1020,6 hPa 0,0 l/m 6,5 km/h (2 Bft) O 88 5 min 0,000 mm 1,0 UV-I 689 W/m 14,4 C 30,3 C 7,9 km/h (2 Bft) 0,00 %
03.07.2015 18:25 30,4 C 40 % 1020,6 hPa 0,0 l/m 3,2 km/h (1 Bft) O-SO 123 5 min 0,000 mm 1,0 UV-I 662 W/m 15,3 C 30,4 C 4,0 km/h (1 Bft) 0,00 %
03.07.2015 18:30 30,4 C 39 % 1020,5 hPa 0,0 l/m 4,7 km/h (1 Bft) O-SO 112 5 min 0,000 mm 1,0 UV-I 682 W/m 14,9 C 30,4 C 7,9 km/h (2 Bft) 0,00 %
03.07.2015 18:35 30,3 C 39 % 1020,6 hPa 0,0 l/m 4,0 km/h (1 Bft) O-SO 107 5 min 0,000 mm 1,0 UV-I 614 W/m 14,8 C 30,3 C 7,9 km/h (2 Bft) 0,00 %
03.07.2015 18:40 30,1 C 40 % 1020,7 hPa 0,0 l/m 4,0 km/h (1 Bft) O-SO 121 5 min 0,000 mm 1,0 UV-I 514 W/m 15,0 C 30,1 C 7,9 km/h (2 Bft) 0,00 %
03.07.2015 18:45 30,0 C 40 % 1020,9 hPa 0,0 l/m 2,9 km/h (1 Bft) SO 127 5 min 0,000 mm 1,0 UV-I 552 W/m 14,9 C 30,0 C 4,0 km/h (1 Bft) 0,00 %
03.07.2015 18:50 30,1 C 39 % 1020,6 hPa 0,0 l/m 2,2 km/h (1 Bft) O-NO 57 5 min 0,000 mm 1,0 UV-I 518 W/m 14,6 C 30,1 C 4,0 km/h (1 Bft) 0,00 %
03.07.2015 18:55 30,1 C 40 % 1020,6 hPa 0,0 l/m 1,4 km/h (1 Bft) NO 55 5 min 0,000 mm 1,0 UV-I 547 W/m 15,0 C 30,1 C 4,0 km/h (1 Bft) 0,00 %
03.07.2015 19:00 30,0 C 41 % 1020,7 hPa 0,0 l/m 0,7 km/h (0 Bft) O-NO 76 5 min 0,000 mm 1,0 UV-I 520 W/m 15,3 C 30,0 C 4,0 km/h (1 Bft) 0,00 %
03.07.2015 19:05 29,9 C 42 % 1020,7 hPa 0,0 l/m 0,0 km/h (0 Bft) O-SO 107 5 min 0,000 mm 1,0 UV-I 271 W/m 15,6 C 29,9 C 0,0 km/h (0 Bft) 0,00 %
03.07.2015 19:10 29,7 C 41 % 1020,5 hPa 0,0 l/m 6,5 km/h (2 Bft) O 101 5 min 0,000 mm 1,0 UV-I 395 W/m 15,0 C 29,7 C 7,9 km/h (2 Bft) 0,00 %
03.07.2015 19:15 29,7 C 41 % 1020,5 hPa 0,0 l/m 5,8 km/h (2 Bft) O-SO 112 5 min 0,000 mm 1,0 UV-I 366 W/m 15,0 C 29,7 C 7,9 km/h (2 Bft) 0,00 %
03.07.2015 19:20 29,5 C 42 % 1020,5 hPa 0,0 l/m 2,9 km/h (1 Bft) NO 41 5 min 0,000 mm 1,0 UV-I 327 W/m 15,2 C 29,5 C 4,0 km/h (1 Bft) 0,00 %
03.07.2015 19:25 29,2 C 42 % 1020,7 hPa 0,0 l/m 5,8 km/h (2 Bft) O-SO 119 5 min 0,000 mm 1,0 UV-I 301 W/m 14,9 C 29,2 C 7,9 km/h (2 Bft) 0,00 %
03.07.2015 19:30 29,0 C 44 % 1020,6 hPa 0,0 l/m 5,8 km/h (2 Bft) O 84 5 min 0,000 mm 1,0 UV-I 200 W/m 15,5 C 29,0 C 7,9 km/h (2 Bft) 0,00 %
03.07.2015 19:35 28,9 C 45 % 1020,6 hPa 0,0 l/m 4,0 km/h (1 Bft) O 88 5 min 0,000 mm 1,0 UV-I 130 W/m 15,8 C 28,9 C 7,9 km/h (2 Bft) 0,00 %
03.07.2015 19:40 28,7 C 46 % 1020,6 hPa 0,0 l/m 1,4 km/h (1 Bft) O 95 0 min 0,000 mm 1,0 UV-I 92 W/m 15,9 C 28,7 C 4,0 km/h (1 Bft) 0,00 %
03.07.2015 19:45 28,5 C 46 % 1020,8 hPa 0,0 l/m 0,0 km/h (0 Bft) NO 56 0 min 0,000 mm 1,0 UV-I 80 W/m 15,7 C 28,5 C 0,0 km/h (0 Bft) 0,00 %
03.07.2015 19:50 28,2 C 48 % 1020,8 hPa 0,0 l/m 0,0 km/h (0 Bft) O-NO 64 0 min 0,000 mm 0,0 UV-I 74 W/m 16,1 C 28,2 C 0,0 km/h (0 Bft) 0,00 %
03.07.2015 19:55 27,9 C 50 % 1021,0 hPa 0,0 l/m 0,4 km/h (0 Bft) NO 54 0 min 0,000 mm 0,0 UV-I 81 W/m 16,5 C 27,9 C 4,0 km/h (1 Bft) 0,00 %
03.07.2015 20:00 27,5 C 51 % 1021,0 hPa 0,0 l/m 0,0 km/h (0 Bft) O-NO 72 5 min 0,000 mm 0,0 UV-I 104 W/m 16,4 C 27,5 C 0,0 km/h (0 Bft) 0,00 %
03.07.2015 20:05 27,1 C 51 % 1021,1 hPa 0,0 l/m 1,8 km/h (1 Bft) O-SO 117 5 min 0,000 mm 0,0 UV-I 90 W/m 16,1 C 27,1 C 4,0 km/h (1 Bft) 0,00 %
03.07.2015 20:10 26,8 C 51 % 1021,2 hPa 0,0 l/m 0,0 km/h (0 Bft) O-NO 76 5 min 0,000 mm 0,0 UV-I 72 W/m 15,8 C 26,8 C 0,0 km/h (0 Bft) 0,00 %
03.07.2015 20:15 26,5 C 51 % 1021,3 hPa 0,0 l/m 0,4 km/h (0 Bft) O 92 0 min 0,000 mm 0,0 UV-I 42 W/m 15,5 C 26,5 C 4,0 km/h (1 Bft) 0,00 %
03.07.2015 20:20 26,3 C 51 % 1021,3 hPa 0,0 l/m 0,0 km/h (0 Bft) O-NO 73 0 min 0,000 mm 0,0 UV-I 30 W/m 15,3 C 26,3 C 0,0 km/h (0 Bft) 0,00 %
03.07.2015 20:25 26,2 C 50 % 1021,3 hPa 0,0 l/m 0,4 km/h (0 Bft) O 101 0 min 0,000 mm 0,0 UV-I 22 W/m 14,9 C 26,2 C 4,0 km/h (1 Bft) 0,00 %
03.07.2015 20:30 26,2 C 50 % 1021,4 hPa 0,0 l/m 0,0 km/h (0 Bft) O-NO 68 0 min 0,000 mm 0,0 UV-I 11 W/m 14,9 C 26,2 C 0,0 km/h (0 Bft) 0,00 %
03.07.2015 20:35 26,2 C 50 % 1021,4 hPa 0,0 l/m 0,0 km/h (0 Bft) NO 46 0 min 0,000 mm 0,0 UV-I 5 W/m 14,9 C 26,2 C 0,0 km/h (0 Bft) 0,00 %
03.07.2015 20:40 26,0 C 52 % 1021,4 hPa 0,0 l/m 0,0 km/h (0 Bft) NO 56 0 min 0,000 mm 0,0 UV-I 1 W/m 15,4 C 26,0 C 0,0 km/h (0 Bft) 0,00 %
03.07.2015 20:45 25,7 C 53 % 1021,5 hPa 0,0 l/m 0,0 km/h (0 Bft) O-NO 66 0 min 0,000 mm 0,0 UV-I 0 W/m 15,4 C 25,7 C 0,0 km/h (0 Bft) 0,00 %
03.07.2015 20:50 25,4 C 54 % 1021,6 hPa 0,0 l/m 0,0 km/h (0 Bft) O-NO 64 0 min 0,000 mm 0,0 UV-I 0 W/m 15,4 C 25,4 C 0,0 km/h (0 Bft) 0,00 %
03.07.2015 20:55 25,1 C 56 % 1021,6 hPa 0,0 l/m 0,0 km/h (0 Bft) NO 51 0 min 0,000 mm 0,0 UV-I 0 W/m 15,7 C 25,1 C 0,0 km/h (0 Bft) 0,00 %
03.07.2015 21:00 24,7 C 57 % 1021,6 hPa 0,0 l/m 0,0 km/h (0 Bft) O-NO 57 0 min 0,000 mm 0,0 UV-I 0 W/m 15,6 C 24,7 C 0,0 km/h (0 Bft) 0,00 %
03.07.2015 21:05 24,4 C 58 % 1021,9 hPa 0,0 l/m 0,0 km/h (0 Bft) O 79 0 min 0,000 mm 0,0 UV-I 0 W/m 15,6 C 24,4 C 0,0 km/h (0 Bft) 0,00 %
03.07.2015 21:10 24,1 C 60 % 1021,8 hPa 0,0 l/m 0,4 km/h (0 Bft) O-SO 106 0 min 0,000 mm 0,0 UV-I 0 W/m 15,8 C 24,1 C 4,0 km/h (1 Bft) 0,00 %
03.07.2015 21:15 23,9 C 60 % 1021,8 hPa 0,0 l/m 0,0 km/h (0 Bft) O-SO 112 0 min 0,000 mm 0,0 UV-I 0 W/m 15,7 C 23,9 C 0,0 km/h (0 Bft) 0,00 %
03.07.2015 21:20 23,7 C 61 % 1022,1 hPa 0,0 l/m 0,0 km/h (0 Bft) O-NO 68 0 min 0,000 mm 0,0 UV-I 0 W/m 15,7 C 23,7 C 0,0 km/h (0 Bft) 0,00 %
03.07.2015 21:25 23,5 C 61 % 1022,1 hPa 0,0 l/m 0,0 km/h (0 Bft) O-NO 69 0 min 0,000 mm 0,0 UV-I 0 W/m 15,5 C 23,5 C 0,0 km/h (0 Bft) 0,00 %
03.07.2015 21:30 23,3 C 62 % 1022,2 hPa 0,0 l/m 0,4 km/h (0 Bft) O-NO 64 0 min 0,000 mm 0,0 UV-I 0 W/m 15,6 C 23,3 C 4,0 km/h (1 Bft) 0,00 %
03.07.2015 21:35 23,2 C 62 % 1022,3 hPa 0,0 l/m 0,0 km/h (0 Bft) O 87 0 min 0,000 mm 0,0 UV-I 0 W/m 15,5 C 23,2 C 0,0 km/h (0 Bft) 0,00 %
03.07.2015 21:40 23,0 C 64 % 1022,2 hPa 0,0 l/m 0,0 km/h (0 Bft) NO 39 0 min 0,000 mm 0,0 UV-I 0 W/m 15,8 C 23,0 C 0,0 km/h (0 Bft) 0,00 %
03.07.2015 21:45 22,8 C 65 % 1022,5 hPa 0,0 l/m 2,9 km/h (1 Bft) O-NO 72 0 min 0,000 mm 0,0 UV-I 0 W/m 15,9 C 22,8 C 4,0 km/h (1 Bft) 0,00 %
03.07.2015 21:50 22,5 C 65 % 1022,5 hPa 0,0 l/m 0,0 km/h (0 Bft) N 354 0 min 0,000 mm 0,0 UV-I 0 W/m 15,6 C 22,5 C 0,0 km/h (0 Bft) 0,00 %
03.07.2015 21:55 22,4 C 65 % 1022,6 hPa 0,0 l/m 0,0 km/h (0 Bft) O-NO 68 0 min 0,000 mm 0,0 UV-I 0 W/m 15,5 C 22,4 C 0,0 km/h (0 Bft) 0,00 %
03.07.2015 22:00 22,4 C 65 % 1022,8 hPa 0,0 l/m 3,2 km/h (1 Bft) O-SO 121 0 min 0,000 mm 0,0 UV-I 0 W/m 15,5 C 22,4 C 7,9 km/h (2 Bft) 0,00 %
03.07.2015 22:05 22,4 C 65 % 1022,8 hPa 0,0 l/m 0,0 km/h (0 Bft) O 88 0 min 0,000 mm 0,0 UV-I 0 W/m 15,5 C 22,4 C 0,0 km/h (0 Bft) 0,00 %
03.07.2015 22:10 22,3 C 66 % 1022,6 hPa 0,0 l/m 0,0 km/h (0 Bft) O 99 0 min 0,000 mm 0,0 UV-I 0 W/m 15,6 C 22,3 C 0,0 km/h (0 Bft) 0,00 %
03.07.2015 22:15 22,1 C 67 % 1022,7 hPa 0,0 l/m 0,0 km/h (0 Bft) W 278 0 min 0,000 mm 0,0 UV-I 0 W/m 15,7 C 22,1 C 0,0 km/h (0 Bft) 0,00 %
03.07.2015 22:20 22,0 C 68 % 1022,4 hPa 0,0 l/m 0,4 km/h (0 Bft) O-SO 107 0 min 0,000 mm 0,0 UV-I 0 W/m 15,8 C 22,0 C 4,0 km/h (1 Bft) 0,00 %
03.07.2015 22:25 21,9 C 66 % 1022,6 hPa 0,0 l/m 1,8 km/h (1 Bft) O-SO 115 0 min 0,000 mm 0,0 UV-I 0 W/m 15,3 C 21,9 C 4,0 km/h (1 Bft) 0,00 %
03.07.2015 22:30 21,9 C 66 % 1022,8 hPa 0,0 l/m 0,7 km/h (0 Bft) O 95 0 min 0,000 mm 0,0 UV-I 0 W/m 15,3 C 21,9 C 4,0 km/h (1 Bft) 0,00 %
03.07.2015 22:35 22,1 C 65 % 1022,6 hPa 0,0 l/m 0,7 km/h (0 Bft) SO 143 0 min 0,000 mm 0,0 UV-I 0 W/m 15,2 C 22,1 C 4,0 km/h (1 Bft) 0,00 %
03.07.2015 22:40 22,2 C 66 % 1022,7 hPa 0,0 l/m 0,0 km/h (0 Bft) O-NO 76 0 min 0,000 mm 0,0 UV-I 0 W/m 15,5 C 22,2 C 0,0 km/h (0 Bft) 0,00 %
03.07.2015 22:45 22,1 C 67 % 1022,5 hPa 0,0 l/m 0,0 km/h (0 Bft) O 83 0 min 0,000 mm 0,0 UV-I 0 W/m 15,7 C 22,1 C 0,0 km/h (0 Bft) 0,00 %
03.07.2015 22:50 22,0 C 66 % 1022,6 hPa 0,0 l/m 3,2 km/h (1 Bft) O-SO 112 0 min 0,000 mm 0,0 UV-I 0 W/m 15,3 C 22,0 C 7,9 km/h (2 Bft) 0,00 %
03.07.2015 22:55 22,0 C 65 % 1022,6 hPa 0,0 l/m 0,0 km/h (0 Bft) O 92 0 min 0,000 mm 0,0 UV-I 0 W/m 15,1 C 22,0 C 0,0 km/h (0 Bft) 0,00 %
03.07.2015 23:00 22,1 C 65 % 1022,5 hPa 0,0 l/m 2,2 km/h (1 Bft) O 82 0 min 0,000 mm 0,0 UV-I 0 W/m 15,2 C 22,1 C 4,0 km/h (1 Bft) 0,00 %
03.07.2015 23:05 22,2 C 66 % 1022,4 hPa 0,0 l/m 0,4 km/h (0 Bft) O-SO 104 0 min 0,000 mm 0,0 UV-I 0 W/m 15,5 C 22,2 C 4,0 km/h (1 Bft) 0,00 %
03.07.2015 23:10 22,1 C 66 % 1022,8 hPa 0,0 l/m 5,8 km/h (2 Bft) O 100 0 min 0,000 mm 0,0 UV-I 0 W/m 15,4 C 22,1 C 7,9 km/h (2 Bft) 0,00 %
03.07.2015 23:15 21,9 C 67 % 1022,8 hPa 0,0 l/m 0,0 km/h (0 Bft) O 100 0 min 0,000 mm 0,0 UV-I 0 W/m 15,5 C 21,9 C 0,0 km/h (0 Bft) 0,00 %
03.07.2015 23:20 21,8 C 67 % 1022,7 hPa 0,0 l/m 0,0 km/h (0 Bft) NO 43 0 min 0,000 mm 0,0 UV-I 0 W/m 15,4 C 21,8 C 0,0 km/h (0 Bft) 0,00 %
03.07.2015 23:25 21,6 C 68 % 1022,8 hPa 0,0 l/m 0,0 km/h (0 Bft) NO 36 0 min 0,000 mm 0,0 UV-I 0 W/m 15,4 C 21,6 C 0,0 km/h (0 Bft) 0,00 %
03.07.2015 23:30 21,3 C 69 % 1023,0 hPa 0,0 l/m 0,0 km/h (0 Bft) O-SO 120 0 min 0,000 mm 0,0 UV-I 0 W/m 15,4 C 21,3 C 0,0 km/h (0 Bft) 0,00 %
03.07.2015 23:35 21,2 C 69 % 1022,8 hPa 0,0 l/m 0,0 km/h (0 Bft) NO 52 0 min 0,000 mm 0,0 UV-I 0 W/m 15,3 C 21,2 C 0,0 km/h (0 Bft) 0,00 %
03.07.2015 23:40 21,0 C 69 % 1022,9 hPa 0,0 l/m 0,0 km/h (0 Bft) O-NO 57 0 min 0,000 mm 0,0 UV-I 0 W/m 15,1 C 21,0 C 0,0 km/h (0 Bft) 0,00 %
03.07.2015 23:45 21,0 C 69 % 1022,9 hPa 0,0 l/m 1,4 km/h (1 Bft) O-SO 110 0 min 0,000 mm 0,0 UV-I 0 W/m 15,1 C 21,0 C 4,0 km/h (1 Bft) 0,00 %
03.07.2015 23:50 20,9 C 70 % 1022,9 hPa 0,0 l/m 2,2 km/h (1 Bft) O-SO 110 0 min 0,000 mm 0,0 UV-I 0 W/m 15,2 C 20,9 C 4,0 km/h (1 Bft) 0,00 %
03.07.2015 23:55 20,9 C 70 % 1023,0 hPa 0,0 l/m 0,0 km/h (0 Bft) W 281 0 min 0,000 mm 0,0 UV-I 0 W/m 15,2 C 20,9 C 0,0 km/h (0 Bft) 0,00 %
_ Min-Zeit 05:15 15:55 17:45 - 00:00 - - - - - - 15:55 05:15 00:00 00:00
Minimum _ 14,8 C 29 % 1020,5 hPa - 0,0 km/h (0 Bft) - - - - - - 10,9 C 14,8 C 0,0 km/h (0 Bft) 0,00 %
_ Max-Zeit 15:15 05:35 05:55 00:00 09:15 - - 05:50 00:00 12:55 14:55 19:55 15:15 16:40 00:00
Maximum _ 31,3 C 83 % 1024,4 hPa 0,0 l/m 10,4 km/h
O-SO (2 Bft)
- - 5 min 0,000 mm 6,0 UV-I 994 W/m 16,5 C 31,3 C 19,8 km/h
O-SO (3 Bft)
0,00 %
Durchschnitt _ 24,2 C 54 % 1022,5 hPa #0,0 l/m 1,5 km/h (1 Bft) O-SO - #14:05 h #0,000 mm 2,9 UV-I 611 W/m 13,8 C 24,2 C 2,8 km/h (1 Bft) 0,00 %